,,,PA_Meas_PMT16A,,PR_Meas_QMR101_102,,RH_Meas_QMH101,,SR_Meas_QMS101,,TA_Meas_QMH101,,GenWind,,GenWind,
date,time,status,PA,status,PR,status,RH,status,SR,status,TA,status,DirAvg,status,SpdAvg,
2012-04-19, 00:00:04,VALID,999.501,VALID,0,VALID,92.9822,VALID,0,VALID,24.4995,VALID,116,VALID,1.11172,
2012-04-19, 00:01:04,VALID,999.541,VALID,0,VALID,92.9211,VALID,0,VALID,24.5209,VALID,116,VALID,0.986328,
2012-04-19, 00:02:04,VALID,999.488,VALID,0,VALID,92.822,VALID,0,VALID,24.5404,VALID,131,VALID,0.729297,
2012-04-19, 00:03:04,VALID,999.543,VALID,0,VALID,92.7838,VALID,0,VALID,24.5404,VALID,130,VALID,1.27422,
2012-04-19, 00:04:04,VALID,999.537,VALID,0,VALID,92.7533,VALID,0,VALID,24.5404,VALID,130,VALID,1.04219,
2012-04-19, 00:05:04,VALID,999.539,VALID,0,VALID,92.7228,VALID,0,VALID,24.5404,VALID,130,VALID,0.795703,
2012-04-19, 00:06:04,VALID,999.544,VALID,0,VALID,92.6541,VALID,0,VALID,24.5013,VALID,131,VALID,0.757031,
2012-04-19, 00:07:04,VALID,999.549,VALID,0,VALID,92.6388,VALID,0,VALID,24.5032,VALID,131,VALID,0.8,
2012-04-19, 00:08:04,VALID,999.558,VALID,0,VALID,92.7304,VALID,0,VALID,24.4818,VALID,131,VALID,0.432031,
2012-04-19, 00:09:04,VALID,999.544,VALID,0,VALID,92.7991,VALID,0,VALID,24.4818,VALID,131,VALID,0.466797,
2012-04-19, 00:10:04,VALID,999.568,VALID,0,VALID,92.8525,VALID,0,VALID,24.4623,VALID,131,VALID,0.0304688,
2012-04-19, 00:11:04,VALID,999.567,VALID,0,VALID,92.8296,VALID,0,VALID,24.4214,VALID,131,VALID,0.103516,
2012-04-19, 00:12:04,VALID,999.559,VALID,0,VALID,92.7762,VALID,0,VALID,24.4446,VALID,131,VALID,0,
2012-04-19, 00:13:04,VALID,999.571,VALID,0,VALID,92.822,VALID,0,VALID,24.4037,VALID,131,VALID,0.103906,
2012-04-19, 00:14:04,VALID,999.563,VALID,0,VALID,92.8525,VALID,0,VALID,24.3842,VALID,131,VALID,0,
2012-04-19, 00:15:04,VALID,999.553,VALID,0,VALID,92.8754,VALID,0,VALID,24.3433,VALID,131,VALID,0,
2012-04-19, 00:16:04,VALID,999.51,VALID,0,VALID,92.8906,VALID,0,VALID,24.3647,VALID,131,VALID,0,
2012-04-19, 00:17:04,VALID,999.501,VALID,0,VALID,92.9745,VALID,0,VALID,24.3452,VALID,131,VALID,0.404687,
2012-04-19, 00:18:04,VALID,999.497,VALID,0,VALID,93.0127,VALID,0,VALID,24.3238,VALID,131,VALID,0.609375,
2012-04-19, 00:19:04,VALID,999.494,VALID,0,VALID,93.028,VALID,0,VALID,24.3452,VALID,131,VALID,0.411719,
2012-04-19, 00:20:04,VALID,999.488,VALID,0,VALID,92.9974,VALID,0,VALID,24.3257,VALID,131,VALID,0.327734,
2012-04-19, 00:21:04,VALID,999.486,VALID,0,VALID,92.9822,VALID,0,VALID,24.3062,VALID,132,VALID,0.148047,
2012-04-19, 00:22:04,VALID,999.495,VALID,0,VALID,93.0203,VALID,0,VALID,24.308,VALID,135,VALID,0.0121094,
2012-04-19, 00:23:04,VALID,999.494,VALID,0,VALID,93.0356,VALID,0,VALID,24.2866,VALID,135,VALID,0,
2012-04-19, 00:24:04,VALID,999.482,VALID,0,VALID,93.0127,VALID,0,VALID,24.2671,VALID,135,VALID,0,
2012-04-19, 00:25:04,VALID,999.464,VALID,0,VALID,93.0585,VALID,0,VALID,24.2671,VALID,135,VALID,0,
2012-04-19, 00:26:04,VALID,999.475,VALID,0,VALID,93.15,VALID,0,VALID,24.2476,VALID,135,VALID,0.00273437,
2012-04-19, 00:27:04,VALID,999.445,VALID,0,VALID,93.2874,VALID,0,VALID,24.2281,VALID,135,VALID,0.184375,
2012-04-19, 00:28:04,VALID,999.441,VALID,0,VALID,93.3789,VALID,0,VALID,24.2263,VALID,135,VALID,0.295312,
2012-04-19, 00:29:04,VALID,999.409,VALID,0,VALID,93.4094,VALID,0,VALID,24.2476,VALID,135,VALID,0.401172,
2012-04-19, 00:30:04,VALID,999.407,VALID,0,VALID,93.4018,VALID,0,VALID,24.2476,VALID,177,VALID,0.748047,
2012-04-19, 00:31:04,VALID,999.437,VALID,0,VALID,93.3103,VALID,0,VALID,24.2671,VALID,164,VALID,0.792969,
2012-04-19, 00:32:04,VALID,999.448,VALID,0,VALID,93.2568,VALID,0,VALID,24.2458,VALID,167,VALID,0.942187,
2012-04-19, 00:33:04,VALID,999.474,VALID,0,VALID,93.1805,VALID,0,VALID,24.3062,VALID,133,VALID,1.15117,
2012-04-19, 00:34:04,VALID,999.472,VALID,0,VALID,93.028,VALID,0,VALID,24.3238,VALID,156,VALID,0.773438,
2012-04-19, 00:35:04,VALID,999.449,VALID,0,VALID,92.8067,VALID,0,VALID,24.3647,VALID,144,VALID,0.723828,
2012-04-19, 00:36:04,VALID,999.42,VALID,0,VALID,92.6388,VALID,0,VALID,24.3647,VALID,141,VALID,0.849219,
2012-04-19, 00:37:04,VALID,999.414,VALID,0,VALID,92.7304,VALID,0,VALID,24.3842,VALID,168,VALID,1.4332,
2012-04-19, 00:38:04,VALID,999.393,VALID,0,VALID,92.8525,VALID,0,VALID,24.4233,VALID,166,VALID,1.4457,
2012-04-19, 00:39:04,VALID,999.422,VALID,0,VALID,92.7762,VALID,0,VALID,24.4214,VALID,173,VALID,1.10547,
2012-04-19, 00:40:04,VALID,999.431,VALID,0,VALID,92.6999,VALID,0,VALID,24.4604,VALID,171,VALID,0.996484,
2012-04-19, 00:41:04,VALID,999.433,VALID,0,VALID,92.677,VALID,0,VALID,24.4623,VALID,159,VALID,0.735937,
2012-04-19, 00:42:04,VALID,999.378,VALID,0,VALID,92.6617,VALID,0,VALID,24.4818,VALID,158,VALID,0.419531,
2012-04-19, 00:43:04,VALID,999.389,VALID,0,VALID,92.616,VALID,0,VALID,24.4623,VALID,158,VALID,0.492188,
2012-04-19, 00:44:04,VALID,999.385,VALID,0,VALID,92.6007,VALID,0,VALID,24.4428,VALID,158,VALID,0.745703,
2012-04-19, 00:45:04,VALID,999.373,VALID,0,VALID,92.6465,VALID,0,VALID,24.4428,VALID,158,VALID,0.573047,
2012-04-19, 00:46:04,VALID,999.388,VALID,0,VALID,92.6617,VALID,0,VALID,24.4037,VALID,158,VALID,0.764063,
2012-04-19, 00:47:04,VALID,999.347,VALID,0,VALID,92.7838,VALID,0,VALID,24.4037,VALID,158,VALID,0.608984,
2012-04-19, 00:48:04,VALID,999.378,VALID,0,VALID,92.9059,VALID,0,VALID,24.4037,VALID,158,VALID,0.674609,
2012-04-19, 00:49:04,VALID,999.333,VALID,0,VALID,93.0203,VALID,0,VALID,24.4037,VALID,158,VALID,0.682031,
2012-04-19, 00:50:04,VALID,999.302,VALID,0,VALID,93.15,VALID,0,VALID,24.4037,VALID,158,VALID,0.846484,
2012-04-19, 00:51:04,VALID,999.322,VALID,0,VALID,93.1271,VALID,0,VALID,24.4037,VALID,158,VALID,0.591016,
2012-04-19, 00:52:04,VALID,999.323,VALID,0,VALID,93.1348,VALID,0,VALID,24.4037,VALID,158,VALID,0.728906,
2012-04-19, 00:53:04,VALID,999.298,VALID,0,VALID,93.1348,VALID,0,VALID,24.4037,VALID,158,VALID,0.532812,
2012-04-19, 00:54:04,VALID,999.258,VALID,0,VALID,93.1424,VALID,0,VALID,24.4037,VALID,158,VALID,0.351563,
2012-04-19, 00:55:04,VALID,999.273,VALID,0,VALID,93.1653,VALID,0,VALID,24.3842,VALID,158,VALID,0.282031,
2012-04-19, 00:56:04,VALID,999.227,VALID,0,VALID,93.1271,VALID,0,VALID,24.3647,VALID,158,VALID,0.264453,
2012-04-19, 00:57:04,VALID,999.209,VALID,0,VALID,93.0203,VALID,0,VALID,24.3452,VALID,158,VALID,0,
2012-04-19, 00:58:04,VALID,999.19,VALID,0,VALID,92.9822,VALID,0,VALID,24.3257,VALID,158,VALID,0,
2012-04-19, 00:59:04,VALID,999.162,VALID,0,VALID,92.9898,VALID,0,VALID,24.3062,VALID,158,VALID,0,
2012-04-19, 01:00:04,VALID,999.165,VALID,0,VALID,93.0051,VALID,0,VALID,24.2476,VALID,158,VALID,0,
2012-04-19, 01:01:04,VALID,999.13,VALID,0,VALID,93.0203,VALID,0,VALID,24.2281,VALID,158,VALID,0,
2012-04-19, 01:02:04,VALID,999.126,VALID,0,VALID,93.0585,VALID,0,VALID,24.1891,VALID,158,VALID,0.0664063,
2012-04-19, 01:03:04,VALID,999.093,VALID,0,VALID,93.0966,VALID,0,VALID,24.1891,VALID,158,VALID,0.376563,
2012-04-19, 01:04:04,VALID,999.08,VALID,0,VALID,93.2721,VALID,0,VALID,24.2086,VALID,158,VALID,0.250781,
2012-04-19, 01:05:04,VALID,999.032,VALID,0,VALID,93.4018,VALID,0,VALID,24.1677,VALID,158,VALID,0,
2012-04-19, 01:06:04,VALID,999.021,VALID,0,VALID,93.44,VALID,0,VALID,24.1891,VALID,158,VALID,0,
2012-04-19, 01:07:04,VALID,999.047,VALID,0,VALID,93.4552,VALID,0,VALID,24.1696,VALID,158,VALID,0,
2012-04-19, 01:08:04,VALID,998.988,VALID,0,VALID,93.501,VALID,0,VALID,24.1909,VALID,158,VALID,0,
2012-04-19, 01:09:04,VALID,999,VALID,0,VALID,93.5697,VALID,0,VALID,24.1696,VALID,158,VALID,0.405859,
2012-04-19, 01:10:04,VALID,998.97,VALID,0,VALID,93.5391,VALID,0,VALID,24.1696,VALID,158,VALID,0.543359,
2012-04-19, 01:11:04,VALID,999.007,VALID,0,VALID,93.4705,VALID,0,VALID,24.15,VALID,158,VALID,0.310547,
2012-04-19, 01:12:04,VALID,998.995,VALID,0,VALID,93.4552,VALID,0,VALID,24.15,VALID,158,VALID,0.167187,
2012-04-19, 01:13:04,VALID,999.014,VALID,0,VALID,93.4171,VALID,0,VALID,24.1305,VALID,158,VALID,0.266016,
2012-04-19, 01:14:04,VALID,998.978,VALID,0,VALID,93.3484,VALID,0,VALID,24.1305,VALID,158,VALID,0.253516,
2012-04-19, 01:15:04,VALID,998.977,VALID,0,VALID,93.3408,VALID,0,VALID,24.1305,VALID,158,VALID,0.148438,
2012-04-19, 01:16:04,VALID,998.947,VALID,0,VALID,93.3179,VALID,0,VALID,24.1305,VALID,158,VALID,0.398047,
2012-04-19, 01:17:04,VALID,998.913,VALID,0,VALID,93.2797,VALID,0,VALID,24.111,VALID,158,VALID,0.376563,
2012-04-19, 01:18:04,VALID,998.893,VALID,0,VALID,93.3103,VALID,0,VALID,24.1305,VALID,158,VALID,0.30625,
2012-04-19, 01:19:04,VALID,998.875,VALID,0,VALID,93.3484,VALID,0,VALID,24.15,VALID,158,VALID,0.0363281,
2012-04-19, 01:20:04,VALID,998.828,VALID,0,VALID,93.3331,VALID,0,VALID,24.1305,VALID,158,VALID,0,
2012-04-19, 01:21:04,VALID,998.821,VALID,0,VALID,93.295,VALID,0,VALID,24.15,VALID,158,VALID,0,
2012-04-19, 01:22:04,VALID,998.823,VALID,0,VALID,93.2263,VALID,0,VALID,24.1305,VALID,158,VALID,0,
2012-04-19, 01:23:04,VALID,998.782,VALID,0,VALID,93.1043,VALID,0,VALID,24.1305,VALID,158,VALID,0,
2012-04-19, 01:24:04,VALID,998.779,VALID,0,VALID,93.0203,VALID,0,VALID,24.111,VALID,158,VALID,0,
2012-04-19, 01:25:04,VALID,998.728,VALID,0,VALID,93.0356,VALID,0,VALID,24.0915,VALID,158,VALID,0,
2012-04-19, 01:26:04,VALID,998.73,VALID,0,VALID,93.0661,VALID,0,VALID,24.0525,VALID,158,VALID,0,
2012-04-19, 01:27:04,VALID,998.741,VALID,0,VALID,93.1805,VALID,0,VALID,24.0329,VALID,158,VALID,0,
2012-04-19, 01:28:04,VALID,998.708,VALID,0,VALID,93.1958,VALID,0,VALID,24.0134,VALID,158,VALID,0,
2012-04-19, 01:29:04,VALID,998.748,VALID,0,VALID,93.2645,VALID,0,VALID,23.9939,VALID,155,VALID,0.190234,
2012-04-19, 01:30:04,VALID,998.739,VALID,0,VALID,93.3103,VALID,0,VALID,23.9744,VALID,153,VALID,0.4375,
2012-04-19, 01:31:04,VALID,998.728,VALID,0,VALID,93.4094,VALID,0,VALID,23.9549,VALID,153,VALID,0.630078,
2012-04-19, 01:32:04,VALID,998.743,VALID,0,VALID,93.5468,VALID,0,VALID,23.9549,VALID,153,VALID,0.632422,
2012-04-19, 01:33:04,VALID,998.781,VALID,0,VALID,93.6154,VALID,0,VALID,23.9744,VALID,116,VALID,0.847656,
2012-04-19, 01:34:04,VALID,998.787,VALID,0,VALID,93.5849,VALID,0,VALID,23.9744,VALID,109,VALID,1.01445,
2012-04-19, 01:35:04,VALID,998.818,VALID,0,VALID,93.5468,VALID,0,VALID,24.0153,VALID,105,VALID,1.00312,
2012-04-19, 01:36:04,VALID,998.8,VALID,0,VALID,93.5697,VALID,0,VALID,23.9939,VALID,105,VALID,0.877734,
2012-04-19, 01:37:04,VALID,998.806,VALID,0,VALID,93.6002,VALID,0,VALID,23.9939,VALID,105,VALID,0.754297,
2012-04-19, 01:38:04,VALID,998.76,VALID,0,VALID,93.6917,VALID,0,VALID,23.9939,VALID,105,VALID,0.717969,
2012-04-19, 01:39:04,VALID,998.766,VALID,0,VALID,93.7451,VALID,0,VALID,23.9939,VALID,105,VALID,0.657812,
2012-04-19, 01:40:04,VALID,998.748,VALID,0,VALID,93.8138,VALID,0,VALID,24.0134,VALID,105,VALID,0.4625,
2012-04-19, 01:41:04,VALID,998.734,VALID,0,VALID,93.8062,VALID,0,VALID,24.0134,VALID,105,VALID,0.440625,
2012-04-19, 01:42:04,VALID,998.709,VALID,0,VALID,93.8214,VALID,0,VALID,24.0134,VALID,105,VALID,0.426953,
2012-04-19, 01:43:04,VALID,998.692,VALID,0,VALID,93.8138,VALID,0,VALID,24.0134,VALID,105,VALID,0.480469,
2012-04-19, 01:44:04,VALID,998.714,VALID,0,VALID,93.8443,VALID,0,VALID,23.9939,VALID,105,VALID,0.511328,
2012-04-19, 01:45:04,VALID,998.703,VALID,0,VALID,93.852,VALID,0,VALID,23.9744,VALID,105,VALID,0.479688,
2012-04-19, 01:46:04,VALID,998.702,VALID,0,VALID,93.8291,VALID,0,VALID,23.9939,VALID,105,VALID,0.505078,
2012-04-19, 01:47:04,VALID,998.657,VALID,0,VALID,93.768,VALID,0,VALID,23.9336,VALID,105,VALID,0.667969,
2012-04-19, 01:48:04,VALID,998.662,VALID,0,VALID,93.7375,VALID,0,VALID,23.9354,VALID,105,VALID,0.63125,
2012-04-19, 01:49:04,VALID,998.642,VALID,0,VALID,93.7375,VALID,0,VALID,23.9159,VALID,105,VALID,0.635547,
2012-04-19, 01:50:04,VALID,998.626,VALID,0,VALID,93.768,VALID,0,VALID,23.9159,VALID,105,VALID,0.528516,
2012-04-19, 01:51:04,VALID,998.622,VALID,0,VALID,93.7451,VALID,0,VALID,23.8555,VALID,105,VALID,0.576172,
2012-04-19, 01:52:04,VALID,998.607,VALID,0,VALID,93.768,VALID,0,VALID,23.8768,VALID,105,VALID,0.666016,
2012-04-19, 01:53:04,VALID,998.606,VALID,0,VALID,93.7757,VALID,0,VALID,23.8573,VALID,105,VALID,0.648438,
2012-04-19, 01:54:04,VALID,998.582,VALID,0,VALID,93.7833,VALID,0,VALID,23.8378,VALID,105,VALID,0.500781,
2012-04-19, 01:55:04,VALID,998.571,VALID,0,VALID,93.8443,VALID,0,VALID,23.8378,VALID,105,VALID,0.512891,
2012-04-19, 01:56:04,VALID,998.59,VALID,0,VALID,93.8748,VALID,0,VALID,23.8378,VALID,105,VALID,0.435156,
2012-04-19, 01:57:04,VALID,998.589,VALID,0,VALID,93.9054,VALID,0,VALID,23.8165,VALID,105,VALID,0.464453,
2012-04-19, 01:58:04,VALID,998.581,VALID,0,VALID,93.9206,VALID,0,VALID,23.8378,VALID,105,VALID,0.423438,
2012-04-19, 01:59:04,VALID,998.584,VALID,0,VALID,93.9359,VALID,0,VALID,23.8183,VALID,105,VALID,0.425,
2012-04-19, 02:00:04,VALID,998.598,VALID,0,VALID,93.913,VALID,0,VALID,23.8183,VALID,107,VALID,0.551953,
2012-04-19, 02:01:04,VALID,998.57,VALID,0,VALID,93.8748,VALID,0,VALID,23.8183,VALID,107,VALID,0.509766,
2012-04-19, 02:02:04,VALID,998.576,VALID,0,VALID,93.8596,VALID,0,VALID,23.8183,VALID,107,VALID,0.492578,
2012-04-19, 02:03:04,VALID,998.584,VALID,0,VALID,93.8062,VALID,0,VALID,23.8183,VALID,107,VALID,0.519141,
2012-04-19, 02:04:04,VALID,998.562,VALID,0,VALID,93.7833,VALID,0,VALID,23.8183,VALID,107,VALID,0.426562,
2012-04-19, 02:05:04,VALID,998.575,VALID,0,VALID,93.7604,VALID,0,VALID,23.7988,VALID,107,VALID,0.542969,
2012-04-19, 02:06:04,VALID,998.551,VALID,0,VALID,93.7375,VALID,0,VALID,23.7988,VALID,108,VALID,0.663672,
2012-04-19, 02:07:04,VALID,998.565,VALID,0,VALID,93.7299,VALID,0,VALID,23.7988,VALID,122,VALID,0.633984,
2012-04-19, 02:08:04,VALID,998.534,VALID,0,VALID,93.7223,VALID,0,VALID,23.7793,VALID,122,VALID,0.600391,
2012-04-19, 02:09:04,VALID,998.514,VALID,0,VALID,93.7375,VALID,0,VALID,23.7988,VALID,122,VALID,0.709375,
2012-04-19, 02:10:04,VALID,998.512,VALID,0,VALID,93.707,VALID,0,VALID,23.7793,VALID,140,VALID,1.06367,
2012-04-19, 02:11:04,VALID,998.485,VALID,0,VALID,93.6383,VALID,0,VALID,23.7793,VALID,144,VALID,1.25859,
2012-04-19, 02:12:04,VALID,998.49,VALID,0,VALID,93.5773,VALID,0,VALID,23.7988,VALID,141,VALID,1.06953,
2012-04-19, 02:13:04,VALID,998.487,VALID,0,VALID,93.4857,VALID,0,VALID,23.7988,VALID,141,VALID,1.04688,
2012-04-19, 02:14:04,VALID,998.473,VALID,0,VALID,93.3789,VALID,0,VALID,23.7988,VALID,140,VALID,1.07109,
2012-04-19, 02:15:04,VALID,998.464,VALID,0,VALID,93.3103,VALID,0,VALID,23.7579,VALID,141,VALID,0.955078,
2012-04-19, 02:16:04,VALID,998.463,VALID,0,VALID,93.2797,VALID,0,VALID,23.7597,VALID,141,VALID,1.04141,
2012-04-19, 02:17:04,VALID,998.432,VALID,0,VALID,93.295,VALID,0,VALID,23.7793,VALID,141,VALID,0.869922,
2012-04-19, 02:18:04,VALID,998.42,VALID,0,VALID,93.3331,VALID,0,VALID,23.7793,VALID,141,VALID,0.773828,
2012-04-19, 02:19:04,VALID,998.427,VALID,0,VALID,93.3331,VALID,0,VALID,23.7384,VALID,141,VALID,0.598437,
2012-04-19, 02:20:04,VALID,998.465,VALID,0,VALID,93.3484,VALID,0,VALID,23.7384,VALID,141,VALID,0.626172,
2012-04-19, 02:21:04,VALID,998.469,VALID,0,VALID,93.3484,VALID,0,VALID,23.7402,VALID,141,VALID,0.428125,
2012-04-19, 02:22:04,VALID,998.458,VALID,0,VALID,93.3484,VALID,0,VALID,23.7402,VALID,141,VALID,0.248047,
2012-04-19, 02:23:04,VALID,998.481,VALID,0,VALID,93.3866,VALID,0,VALID,23.7189,VALID,141,VALID,0.21875,
2012-04-19, 02:24:04,VALID,998.488,VALID,0,VALID,93.4018,VALID,0,VALID,23.7207,VALID,141,VALID,0.140625,
2012-04-19, 02:25:04,VALID,998.47,VALID,0,VALID,93.4094,VALID,0,VALID,23.7207,VALID,141,VALID,0,
2012-04-19, 02:26:04,VALID,998.493,VALID,0,VALID,93.4018,VALID,0,VALID,23.7012,VALID,141,VALID,0,
2012-04-19, 02:27:04,VALID,998.491,VALID,0,VALID,93.4323,VALID,0,VALID,23.6817,VALID,141,VALID,0,
2012-04-19, 02:28:04,VALID,998.462,VALID,0,VALID,93.4628,VALID,0,VALID,23.6409,VALID,141,VALID,0.0800781,
2012-04-19, 02:29:04,VALID,998.47,VALID,0,VALID,93.5315,VALID,0,VALID,23.6622,VALID,141,VALID,0,
2012-04-19, 02:30:04,VALID,998.433,VALID,0,VALID,93.5544,VALID,0,VALID,23.6409,VALID,141,VALID,0,
2012-04-19, 02:31:04,VALID,998.443,VALID,0,VALID,93.6231,VALID,0,VALID,23.6427,VALID,141,VALID,0,
2012-04-19, 02:32:04,VALID,998.431,VALID,0,VALID,93.6078,VALID,0,VALID,23.6427,VALID,141,VALID,0,
2012-04-19, 02:33:04,VALID,998.425,VALID,0,VALID,93.6078,VALID,0,VALID,23.6427,VALID,141,VALID,0,
2012-04-19, 02:34:04,VALID,998.404,VALID,0,VALID,93.6002,VALID,0,VALID,23.6445,VALID,141,VALID,0,
2012-04-19, 02:35:04,VALID,998.388,VALID,0,VALID,93.6307,VALID,0,VALID,23.6232,VALID,141,VALID,0,
2012-04-19, 02:36:04,VALID,998.37,VALID,0,VALID,93.646,VALID,0,VALID,23.6036,VALID,141,VALID,0,
2012-04-19, 02:37:04,VALID,998.388,VALID,0,VALID,93.6688,VALID,0,VALID,23.6036,VALID,141,VALID,0,
2012-04-19, 02:38:04,VALID,998.395,VALID,0,VALID,93.7146,VALID,0,VALID,23.6036,VALID,141,VALID,0,
2012-04-19, 02:39:04,VALID,998.448,VALID,0,VALID,93.768,VALID,0,VALID,23.6036,VALID,141,VALID,0,
2012-04-19, 02:40:04,VALID,998.408,VALID,0,VALID,93.768,VALID,0,VALID,23.6036,VALID,141,VALID,0,
2012-04-19, 02:41:04,VALID,998.417,VALID,0,VALID,93.7757,VALID,0,VALID,23.6036,VALID,141,VALID,0,
2012-04-19, 02:42:04,VALID,998.415,VALID,0,VALID,93.7604,VALID,0,VALID,23.6036,VALID,141,VALID,0,
2012-04-19, 02:43:04,VALID,998.42,VALID,0,VALID,93.7223,VALID,0,VALID,23.6036,VALID,141,VALID,0,
2012-04-19, 02:44:04,VALID,998.397,VALID,0,VALID,93.6994,VALID,0,VALID,23.6036,VALID,141,VALID,0,
2012-04-19, 02:45:04,VALID,998.375,VALID,0,VALID,93.6994,VALID,0,VALID,23.5823,VALID,141,VALID,0,
2012-04-19, 02:46:04,VALID,998.407,VALID,0,VALID,93.6536,VALID,0,VALID,23.5646,VALID,141,VALID,0.545313,
2012-04-19, 02:47:04,VALID,998.41,VALID,0,VALID,93.6231,VALID,0,VALID,23.5256,VALID,141,VALID,0.364453,
2012-04-19, 02:48:04,VALID,998.419,VALID,0,VALID,93.6765,VALID,0,VALID,23.5061,VALID,141,VALID,0.282031,
2012-04-19, 02:49:04,VALID,998.455,VALID,0,VALID,93.7223,VALID,0,VALID,23.5061,VALID,141,VALID,0.255859,
2012-04-19, 02:50:04,VALID,998.465,VALID,0,VALID,93.7909,VALID,0,VALID,23.4866,VALID,141,VALID,0.0128906,
2012-04-19, 02:51:04,VALID,998.498,VALID,0,VALID,93.8214,VALID,0,VALID,23.4671,VALID,141,VALID,0.0746094,
2012-04-19, 02:52:04,VALID,998.501,VALID,0,VALID,93.8214,VALID,0,VALID,23.4475,VALID,141,VALID,0,
2012-04-19, 02:53:04,VALID,998.527,VALID,0,VALID,93.8367,VALID,0,VALID,23.4263,VALID,141,VALID,0.205078,
2012-04-19, 02:54:04,VALID,998.557,VALID,0,VALID,93.913,VALID,0,VALID,23.4475,VALID,141,VALID,0,
2012-04-19, 02:55:04,VALID,998.559,VALID,0,VALID,93.9664,VALID,0,VALID,23.428,VALID,141,VALID,0,
2012-04-19, 02:56:04,VALID,998.556,VALID,0,VALID,93.9664,VALID,0,VALID,23.3872,VALID,141,VALID,0,
2012-04-19, 02:57:04,VALID,998.577,VALID,0,VALID,93.9817,VALID,0,VALID,23.389,VALID,141,VALID,0,
2012-04-19, 02:58:04,VALID,998.582,VALID,0,VALID,94.058,VALID,0,VALID,23.4085,VALID,141,VALID,0,
2012-04-19, 02:59:04,VALID,998.572,VALID,0,VALID,94.1343,VALID,0,VALID,23.4085,VALID,141,VALID,0,
2012-04-19, 03:00:04,VALID,998.612,VALID,0,VALID,94.2182,VALID,0,VALID,23.428,VALID,141,VALID,0,
2012-04-19, 03:01:04,VALID,998.615,VALID,0,VALID,94.2868,VALID,0,VALID,23.4067,VALID,141,VALID,0,
2012-04-19, 03:02:04,VALID,998.612,VALID,0,VALID,94.3097,VALID,0,VALID,23.4475,VALID,137,VALID,0,
2012-04-19, 03:03:04,VALID,998.645,VALID,0,VALID,94.3174,VALID,0,VALID,23.428,VALID,14,VALID,0.572266,
2012-04-19, 03:04:04,VALID,998.651,VALID,0,VALID,94.3479,VALID,0,VALID,23.428,VALID,14,VALID,0.575,
2012-04-19, 03:05:04,VALID,998.651,VALID,0,VALID,94.3326,VALID,0,VALID,23.428,VALID,14,VALID,0.551172,
2012-04-19, 03:06:04,VALID,998.625,VALID,0,VALID,94.3174,VALID,0,VALID,23.4085,VALID,14,VALID,0.420703,
2012-04-19, 03:07:04,VALID,998.631,VALID,0,VALID,94.4165,VALID,0,VALID,23.4085,VALID,14,VALID,0.276172,
2012-04-19, 03:08:04,VALID,998.583,VALID,0,VALID,94.4013,VALID,0,VALID,23.428,VALID,14,VALID,0.296875,
2012-04-19, 03:09:04,VALID,998.586,VALID,0,VALID,94.4242,VALID,0,VALID,23.4085,VALID,14,VALID,0.421484,
2012-04-19, 03:10:04,VALID,998.545,VALID,0,VALID,94.4165,VALID,0,VALID,23.4085,VALID,14,VALID,0.443359,
2012-04-19, 03:11:04,VALID,998.525,VALID,0,VALID,94.4394,VALID,0,VALID,23.4085,VALID,14,VALID,0.409375,
2012-04-19, 03:12:04,VALID,998.535,VALID,0,VALID,94.4547,VALID,0,VALID,23.389,VALID,14,VALID,0.304297,
2012-04-19, 03:13:04,VALID,998.536,VALID,0,VALID,94.4776,VALID,0,VALID,23.4085,VALID,14,VALID,0.0566406,
2012-04-19, 03:14:04,VALID,998.525,VALID,0,VALID,94.5157,VALID,0,VALID,23.4085,VALID,14,VALID,0,
2012-04-19, 03:15:04,VALID,998.544,VALID,0,VALID,94.531,VALID,0,VALID,23.4085,VALID,14,VALID,0.0574219,
2012-04-19, 03:16:04,VALID,998.553,VALID,0,VALID,94.5386,VALID,0,VALID,23.389,VALID,14,VALID,0.266406,
2012-04-19, 03:17:04,VALID,998.561,VALID,0,VALID,94.5234,VALID,0,VALID,23.389,VALID,14,VALID,0.0929687,
2012-04-19, 03:18:04,VALID,998.567,VALID,0,VALID,94.47,VALID,0,VALID,23.389,VALID,14,VALID,0.0707031,
2012-04-19, 03:19:04,VALID,998.586,VALID,0,VALID,94.4623,VALID,0,VALID,23.389,VALID,14,VALID,0.507031,
2012-04-19, 03:20:04,VALID,998.604,VALID,0,VALID,94.531,VALID,0,VALID,23.389,VALID,14,VALID,0.471094,
2012-04-19, 03:21:04,VALID,998.607,VALID,0,VALID,94.5997,VALID,0,VALID,23.428,VALID,14,VALID,0.299219,
2012-04-19, 03:22:04,VALID,998.611,VALID,0,VALID,94.592,VALID,0,VALID,23.4085,VALID,14,VALID,0.280469,
2012-04-19, 03:23:04,VALID,998.622,VALID,0,VALID,94.5844,VALID,0,VALID,23.428,VALID,14,VALID,0.169531,
2012-04-19, 03:24:04,VALID,998.652,VALID,0,VALID,94.5997,VALID,0,VALID,23.4085,VALID,14,VALID,0.358594,
2012-04-19, 03:25:04,VALID,998.663,VALID,0,VALID,94.6226,VALID,0,VALID,23.4085,VALID,14,VALID,0.325781,
2012-04-19, 03:26:04,VALID,998.684,VALID,0,VALID,94.6454,VALID,0,VALID,23.428,VALID,14,VALID,0.246094,
2012-04-19, 03:27:04,VALID,998.672,VALID,0,VALID,94.5997,VALID,0,VALID,23.4085,VALID,14,VALID,0.513672,
2012-04-19, 03:28:04,VALID,998.717,VALID,0,VALID,94.5386,VALID,0,VALID,23.4085,VALID,14,VALID,0.460547,
2012-04-19, 03:29:04,VALID,998.684,VALID,0,VALID,94.5157,VALID,0,VALID,23.389,VALID,14,VALID,0.450391,
2012-04-19, 03:30:04,VALID,998.673,VALID,0,VALID,94.4623,VALID,0,VALID,23.3695,VALID,14,VALID,0.385938,
2012-04-19, 03:31:04,VALID,998.65,VALID,0,VALID,94.4623,VALID,0,VALID,23.3695,VALID,14,VALID,0.328906,
2012-04-19, 03:32:04,VALID,998.61,VALID,0,VALID,94.4242,VALID,0,VALID,23.3695,VALID,14,VALID,0.333594,
2012-04-19, 03:33:04,VALID,998.602,VALID,0,VALID,94.4318,VALID,0,VALID,23.35,VALID,14,VALID,0.610156,
2012-04-19, 03:34:04,VALID,998.611,VALID,0,VALID,94.3784,VALID,0,VALID,23.311,VALID,14,VALID,0.714063,
2012-04-19, 03:35:04,VALID,998.549,VALID,0,VALID,94.47,VALID,0,VALID,23.3092,VALID,14,VALID,0.778516,
2012-04-19, 03:36:04,VALID,998.592,VALID,0,VALID,94.5157,VALID,0,VALID,23.3305,VALID,14,VALID,0.918359,
2012-04-19, 03:37:04,VALID,998.595,VALID,0,VALID,94.4623,VALID,0,VALID,23.2915,VALID,24,VALID,0.983594,
2012-04-19, 03:38:04,VALID,998.546,VALID,0,VALID,94.386,VALID,0,VALID,23.2719,VALID,24,VALID,0.749219,
2012-04-19, 03:39:04,VALID,998.569,VALID,0,VALID,94.2945,VALID,0,VALID,23.2329,VALID,24,VALID,0.680078,
2012-04-19, 03:40:04,VALID,998.532,VALID,0,VALID,94.3326,VALID,0,VALID,23.2347,VALID,24,VALID,0.847656,
2012-04-19, 03:41:04,VALID,998.539,VALID,0,VALID,94.47,VALID,0,VALID,23.2134,VALID,24,VALID,0.799219,
2012-04-19, 03:42:04,VALID,998.546,VALID,0,VALID,94.5844,VALID,0,VALID,23.2524,VALID,24,VALID,0.666016,
2012-04-19, 03:43:04,VALID,998.551,VALID,0,VALID,94.6378,VALID,0,VALID,23.2719,VALID,26,VALID,0.813672,
2012-04-19, 03:44:04,VALID,998.518,VALID,0,VALID,94.6836,VALID,0,VALID,23.2915,VALID,29,VALID,0.751953,
2012-04-19, 03:45:04,VALID,998.532,VALID,0,VALID,94.7217,VALID,0,VALID,23.311,VALID,29,VALID,0.577734,
2012-04-19, 03:46:04,VALID,998.496,VALID,0,VALID,94.6988,VALID,0,VALID,23.3305,VALID,29,VALID,0.373437,
2012-04-19, 03:47:04,VALID,998.533,VALID,0,VALID,94.6988,VALID,0,VALID,23.3287,VALID,29,VALID,0.247656,
2012-04-19, 03:48:04,VALID,998.543,VALID,0,VALID,94.6836,VALID,0,VALID,23.35,VALID,29,VALID,0.275391,